GEFSCGP_con_cape1000_162.txt.gz
Probability
0 0 0 0 0 0 0 0 0 0 0 0 0 0 6 19 19 29 45 61 71 84 81 81 77 68 68 81 84 84 81 77 74 71 74 74 71 71 71 68 68 71 71 71
0 0 0 0 0 0 0 0 0 0 0 0 0 0 10 16 19 32 42 71 68 74 77 74 68 65 65 71 74 81 74 74 74 71 74 71 71 71 71 65 61 61 61 65
0 0 0 0 0 0 0 0 0 0 0 0 0 0 6 16 19 35 35 61 61 77 77 71 68 65 61 61 71 61 71 77 71 71 71 65 68 65 65 68 61 58 52 55
0 0 0 0 0 0 0 0 0 0 0 0 0 0 6 16 19 32 42 52 55 68 71 68 65 71 65 65 68 71 74 77 71 74 71 58 48 52 58 65 68 58 52 52
0 0 0 0 0 0 0 0 0 0 0 0 0 0 6 19 26 32 42 42 45 61 61 65 71 68 65 65 68 61 71 74 74 68 74 65 48 61 65 68 71 65 55 48
0 0 0 0 0 0 0 0 0 0 0 0 0 0 10 19 26 39 42 42 55 55 55 61 71 61 65 65 65 68 74 71 65 61 58 65 61 58 68 71 61 68 58 45
0 0 0 0 0 0 0 0 0 0 0 0 0 0 3 13 23 26 42 42 42 48 55 68 61 58 65 65 65 68 71 71 65 61 55 55 61 58 65 65 58 55 52 45
0 0 0 0 0 0 0 0 0 0 0 0 0 0 3 13 16 19 32 39 39 42 61 58 55 58 61 61 65 68 71 71 65 58 61 58 61 55 65 68 55 61 52 45
0 0 0 0 0 0 0 0 0 0 0 0 0 0 13 16 13 19 29 29 35 32 42 48 48 58 61 58 61 65 68 68 65 68 68 65 61 61 58 71 68 55 65 48
0 0 0 0 0 0 0 0 0 0 6 0 0 0 0 16 10 19 29 29 32 32 39 35 48 55 58 61 61 65 65 68 68 68 61 45 61 65 61 58 61 58 65 52
0 0 0 0 0 0 0 0 0 0 0 0 0 0 0 16 10 13 23 26 42 39 23 42 52 58 65 61 61 68 61 58 58 55 65 55 55 52 48 58 61 61 48 55
0 0 0 0 0 0 0 0 0 0 0 0 0 0 0 10 10 13 19 29 42 42 32 32 48 55 68 58 65 68 65 61 52 55 58 68 65 58 42 45 65 71 58 58
0 0 0 0 0 0 0 0 0 0 3 3 0 0 3 10 6 6 23 29 45 48 39 52 65 58 65 65 71 68 68 61 55 52 55 52 58 55 52 55 61 74 65 55
0 0 0 0 0 0 0 0 0 0 3 3 0 0 10 10 10 16 23 29 39 48 48 68 71 71 61 74 77 65 65 61 58 61 48 52 52 52 55 58 65 71 65 55
0 0 0 0 0 0 0 0 0 0 0 0 0 10 10 6 16 19 19 23 39 55 48 61 65 65 74 71 74 65 68 61 58 58 48 55 48 55 55 55 61 65 65 48
3 0 0 0 0 0 0 0 0 0 0 0 0 3 10 10 23 26 29 29 35 48 52 65 74 77 71 71 68 68 74 65 65 58 55 58 58 55 58 55 65 65 65 61
3 3 0 0 0 0 0 0 0 0 0 0 0 6 6 19 29 29 29 35 48 55 61 71 77 81 81 74 71 71 74 71 68 61 58 61 58 48 55 42 61 65 65 65
0 13 10 0 0 0 0 0 0 0 0 0 0 13 19 29 32 35 32 48 55 55 65 71 74 74 77 71 65 71 68 68 65 61 58 52 55 52 52 61 65 68 61 61
3 13 0 0 0 0 0 3 0 3 3 3 13 13 13 10 26 32 39 42 61 58 68 65 74 74 77 71 71 71 61 65 58 58 61 58 58 58 61 61 68 71 71 65
3 10 0 0 0 0 0 0 0 0 6 13 13 13 16 19 19 35 35 45 48 58 71 77 71 71 84 84 77 74 65 65 71 61 68 65 65 61 71 71 71 68 68 68
0 0 0 0 0 0 0 0 0 3 10 26 29 29 29 39 29 29 32 42 45 52 58 74 81 81 87 84 87 84 71 65 68 68 68 71 77 77 71 81 87 81 71 65
0 0 0 0 0 0 3 0 10 35 48 32 29 35 29 35 29 26 32 35 42 48 52 65 74 81 77 84 87 87 77 77 81 74 71 68 74 61 55 84 81 74 68 65
3 6 6 3 3 23 19 19 29 39 35 26 16 23 23 23 29 23 29 29 29 39 42 58 68 74 77 84 84 84 84 84 81 81 81 77 68 68 74 77 77 71 68 58
0 0 6 13 6 6 16 13 16 19 6 6 10 23 19 13 10 13 16 19 29 32 35 45 61 61 71 68 68 74 74 81 77 77 77 71 71 68 71 68 58 48 48 45
0 3 6 10 10 10 10 10 10 13 10 3 13 13 13 10 13 13 19 19 26 32 39 48 52 61 65 68 71 71 71 74 74 77 71 68 71 65 58 58 48 39 39 26
0 0 0 6 6 10 3 3 6 6 10 10 10 6 6 6 6 10 16 23 26 29 42 42 48 48 58 65 61 65 71 74 74 71 71 68 65 61 61 58 39 6 6 3

GEFSCGP_con_cape1000_168.txt.gz
Probability
0 0 0 0 0 0 0 0 0 0 0 0 0 0 6 19 29 35 45 52 61 61 58 55 61 65 58 58 52 52 48 42 39 39 32 29 16 26 23 23 23 19 19 13
0 0 0 0 0 0 0 0 0 0 0 0 0 3 6 16 29 32 52 55 61 61 58 61 65 61 58 52 48 45 48 42 39 29 26 23 19 23 19 13 13 19 13 10
0 0 0 0 0 0 0 0 0 0 0 0 0 3 10 10 23 29 58 55 65 68 65 58 65 61 55 48 48 45 39 42 42 29 23 13 19 16 13 10 13 13 10 10
0 0 0 0 0 0 0 0 0 0 0 0 0 0 3 10 23 29 55 58 65 65 68 55 58 58 55 48 48 45 42 39 42 35 23 23 23 19 10 13 10 10 10 13
0 0 0 0 0 0 0 0 0 0 0 0 0 0 0 6 13 23 45 52 52 61 58 55 52 55 52 45 45 42 42 39 42 35 26 16 19 6 6 6 6 10 6 6
0 0 0 0 0 0 0 0 0 0 0 0 0 0 0 6 13 23 23 39 45 52 61 58 55 55 48 42 42 35 42 39 39 39 26 19 13 10 6 6 6 6 3 3
0 0 0 0 0 0 0 0 0 0 0 0 0 0 0 3 6 16 23 29 45 48 58 52 52 48 39 39 39 35 35 39 42 39 29 19 13 13 6 6 6 6 3 3
0 0 0 0 0 0 0 0 0 0 0 0 0 0 0 3 6 10 23 29 45 45 52 48 48 39 35 39 39 35 35 35 39 39 32 19 13 13 6 3 3 6 3 3
0 0 0 0 0 0 0 0 0 0 0 0 0 3 3 6 10 10 16 29 39 45 42 42 39 39 35 39 39 32 35 32 35 32 29 19 16 10 6 3 3 3 0 0
0 0 0 0 0 0 0 0 0 0 0 0 0 0 6 10 13 10 10 13 29 39 35 35 35 42 42 39 39 35 32 32 29 32 32 26 19 10 6 3 3 3 0 0
0 0 0 0 0 0 0 0 0 0 0 0 0 0 3 6 6 10 3 6 16 26 26 26 35 42 32 32 35 39 35 29 26 35 32 29 19 16 6 6 3 3 0 0
0 0 0 0 0 0 0 0 0 0 0 0 0 0 0 6 0 0 3 10 16 23 26 32 29 26 23 29 26 35 39 23 19 23 26 19 19 16 16 10 3 3 0 3
0 0 0 0 0 0 0 0 0 0 0 0 0 0 0 6 3 0 3 10 6 19 19 26 26 29 26 23 23 23 29 19 23 19 16 13 16 13 13 10 6 3 3 3
0 0 0 0 0 0 0 0 0 0 0 0 0 0 3 10 3 0 0 3 6 10 10 13 16 26 19 19 23 19 26 19 19 16 13 13 16 13 10 10 3 3 3 3
0 0 0 0 0 0 0 0 0 0 0 0 0 0 3 0 0 3 6 0 6 10 3 6 3 6 16 16 13 10 10 10 13 13 13 13 13 13 13 10 3 3 3 3
0 0 0 0 0 0 0 0 0 0 0 0 0 3 3 0 6 6 10 10 10 3 3 3 0 3 13 16 16 10 16 19 16 13 10 10 16 13 13 6 3 3 3 3
0 0 0 0 0 0 0 0 0 0 0 0 0 3 0 3 3 6 10 13 16 3 6 6 10 6 16 19 13 10 13 19 13 13 16 16 16 13 13 10 3 3 3 3
0 0 0 0 0 0 0 0 0 0 0 3 0 0 3 3 3 3 3 10 10 10 16 13 13 16 16 16 16 10 10 19 13 13 16 19 23 16 13 13 3 0 0 3
0 0 0 0 0 0 0 0 0 0 3 0 6 6 3 0 3 6 13 10 10 10 13 16 13 16 23 16 19 10 10 13 16 13 19 16 19 13 13 10 10 3 0 0
0 0 0 0 0 0 0 0 0 0 3 6 6 6 3 3 6 10 13 10 6 6 16 16 19 16 23 16 19 16 13 10 13 19 23 23 23 13 16 13 3 3 3 3
0 0 0 0 0 0 0 0 0 0 0 6 3 3 0 0 3 0 3 6 3 6 13 13 16 16 26 23 16 13 16 13 16 16 16 16 16 16 10 6 3 3 3 6
0 0 0 0 0 0 0 0 0 0 0 3 0 0 0 0 0 3 3 0 3 10 10 13 16 19 19 16 19 13 13 13 19 16 16 16 16 10 13 3 3 3 10 6
0 0 0 0 0 0 0 0 3 0 0 3 0 0 0 3 3 3 3 0 3 6 10 10 16 16 10 16 19 16 13 13 10 10 13 16 13 13 6 10 6 10 10 10
0 0 0 0 0 0 0 0 0 0 0 0 0 0 3 3 3 6 6 6 6 6 6 10 13 13 13 13 16 16 13 13 13 13 13 16 16 16 13 10 10 10 10 13
0 0 0 0 0 0 0 0 0 0 0 3 0 0 0 3 3 0 0 0 3 3 10 6 13 16 13 13 13 10 13 13 13 13 13 13 13 6 10 6 6 6 6 6
0 0 0 0 0 0 0 0 0 0 0 0 0 0 0 0 0 3 0 0 6 6 10 10 13 16 16 13 13 10 13 13 13 13 6 10 13 13 6 6 3 0 0 0

GEFSCGP_con_cape1000_174.txt.gz
Probability
0 0 0 0 0 0 0 0 0 0 0 0 0 0 10 19 26 32 35 45 52 55 52 52 52 58 55 55 42 35 19 26 23 16 16 19 13 16 19 19 10 6 6 3
0 0 0 0 0 0 0 0 0 0 0 0 0 0 6 19 23 26 29 42 48 39 35 42 48 58 55 58 52 32 16 23 23 13 13 19 19 13 19 16 13 13 10 3
0 0 0 0 0 0 0 0 0 0 0 0 0 0 6 16 32 32 32 42 32 32 32 42 42 48 52 48 55 48 19 19 19 16 16 13 6 6 10 13 13 10 10 6
0 0 0 0 0 0 0 0 0 0 0 0 0 0 6 10 23 29 35 39 26 26 29 42 45 45 48 48 52 39 23 19 19 16 19 16 13 13 13 10 13 10 10 6
0 0 0 0 0 0 0 0 0 0 0 0 0 0 3 6 19 23 32 35 26 29 32 42 42 48 52 45 39 35 26 23 19 19 19 16 13 10 10 6 6 6 6 6
0 0 0 0 0 0 0 0 0 0 0 0 0 0 0 6 10 16 26 32 32 29 42 39 39 48 48 52 42 42 29 26 19 19 23 19 13 6 3 6 6 6 6 6
0 0 0 0 0 0 0 0 0 0 0 0 0 0 0 0 6 10 19 32 39 29 45 42 48 45 45 39 42 42 32 29 23 19 23 19 13 6 3 6 6 6 6 6
0 0 0 0 0 0 0 0 0 0 0 0 0 0 0 0 3 6 13 23 35 35 45 48 45 39 45 39 35 39 29 32 29 26 23 16 13 10 6 6 6 6 6 3
0 0 0 0 0 0 0 0 0 0 0 0 0 0 3 3 6 10 13 16 39 39 45 45 48 42 42 39 29 29 29 32 26 26 26 13 6 6 6 3 6 6 6 3
0 0 0 0 0 0 0 0 0 0 0 0 0 0 0 6 6 10 13 23 32 39 39 42 39 35 29 32 29 29 23 23 26 26 26 19 16 6 3 3 3 6 6 3
0 0 0 0 0 0 0 0 0 0 0 0 0 0 0 6 6 10 13 19 19 35 32 29 29 32 29 26 26 29 26 23 26 23 23 19 23 13 3 3 3 3 6 0
0 0 0 0 0 0 0 0 0 0 0 0 0 0 0 6 6 10 13 16 23 26 19 19 23 23 29 29 29 26 26 23 26 26 23 19 19 23 13 6 3 3 3 0
0 0 0 0 0 0 0 0 0 0 0 0 0 0 0 3 6 6 10 13 23 19 16 16 23 19 19 23 26 29 26 26 23 26 19 19 19 19 23 13 6 3 3 3
0 0 0 0 0 0 0 0 0 0 0 0 0 0 3 3 6 6 10 13 16 13 16 16 19 16 23 23 23 23 19 23 23 16 16 16 13 16 13 10 3 3 3 3
0 0 0 0 0 0 0 0 0 0 0 0 0 0 0 6 3 3 6 10 6 10 10 13 16 16 19 19 16 16 16 16 16 13 16 13 13 13 13 13 6 3 3 3
0 0 0 0 0 0 0 0 0 0 0 0 0 0 0 0 3 0 0 3 6 3 6 6 10 6 10 10 10 13 13 6 3 10 13 10 10 10 3 10 6 6 3 6
0 0 0 0 0 0 0 0 0 0 0 0 0 0 3 3 3 3 3 0 0 0 0 6 3 0 0 3 3 10 3 0 3 6 6 6 10 10 3 3 3 0 3 6
0 0 0 0 0 0 0 0 0 0 0 0 0 3 3 3 3 3 3 3 0 3 3 3 3 0 0 3 3 3 3 0 0 3 6 6 3 3 3 3 3 3 0 3
0 0 0 0 0 0 0 0 0 0 0 3 3 3 3 0 0 0 0 0 0 0 3 3 0 0 0 0 3 3 3 0 0 0 3 3 3 3 3 3 3 3 0 3
0 0 0 0 0 0 0 0 0 0 0 3 3 3 0 3 0 0 0 0 0 0 3 3 0 0 0 0 6 3 3 0 0 0 0 3 6 6 6 6 6 3 3 3
0 0 0 0 0 0 0 0 0 0 0 0 0 0 0 0 0 0 0 3 0 0 0 3 3 3 3 0 3 3 0 0 0 0 0 3 3 6 6 6 6 6 0 0
0 0 0 0 0 0 0 0 0 0 0 0 0 0 0 3 3 0 0 3 3 0 0 0 3 3 3 3 3 3 0 0 0 0 0 0 0 6 3 3 3 3 3 0
0 0 0 0 0 0 0 0 0 0 0 0 0 0 0 0 0 0 0 0 0 0 0 3 3 3 3 10 10 6 0 0 0 0 0 3 6 0 3 3 3 3 0 3
0 0 0 0 0 0 0 0 0 0 0 0 0 0 0 0 0 0 0 0 0 0 0 3 3 3 3 6 6 10 3 3 3 3 0 0 0 0 0 0 0 0 0 0
0 0 0 0 0 0 0 0 0 0 0 0 0 0 0 3 0 0 3 3 3 3 0 3 6 6 6 3 3 6 3 10 10 6 6 0 0 0 0 0 0 0 0 0
0 0 0 0 0 0 0 0 0 0 0 0 0 0 3 3 3 6 6 6 3 3 0 3 6 6 6 3 3 3 3 6 10 10 6 6 3 3 3 3 0 0 0 0

GEFSCGP_con_cape1000_180.txt.gz
Probability
0 0 0 0 0 0 0 0 0 0 3 3 0 0 0 19 35 55 77 87 90 97 94 100 94 87 84 87 97 100 97 97 97 90 90 94 90 84 74 74 77 71 65 68
0 0 0 0 0 0 0 0 0 0 0 0 0 0 0 13 29 52 74 81 94 97 94 97 100 87 87 87 90 94 97 94 94 87 90 90 90 77 74 74 81 77 68 65
0 0 0 0 0 0 0 0 0 0 0 0 0 0 0 6 26 48 74 84 87 97 94 97 94 94 94 87 87 84 90 90 90 87 84 81 84 74 65 68 71 71 68 58
0 0 0 0 0 0 0 0 0 0 0 0 0 0 0 0 19 48 74 87 87 90 94 94 94 94 94 87 81 87 84 87 94 90 84 77 71 58 61 65 65 65 61 61
0 0 0 0 0 0 0 0 0 0 0 0 0 0 0 0 6 26 48 81 81 87 90 90 97 97 90 77 77 81 87 84 87 87 84 74 71 61 55 61 65 61 58 68
0 0 0 0 0 0 0 0 0 0 0 0 0 0 0 0 6 13 32 58 74 74 84 90 90 94 77 74 71 71 77 81 87 87 84 77 71 71 65 55 65 61 61 61
0 0 0 0 0 0 0 0 0 0 0 0 0 0 0 3 3 10 26 39 58 71 74 87 84 87 77 77 74 71 77 77 74 71 71 71 77 74 71 58 65 61 58 58
0 0 0 0 0 0 0 0 0 0 0 0 0 0 3 0 6 19 19 45 52 65 74 77 81 77 74 77 74 65 68 71 74 68 71 77 77 68 61 68 61 65 55 48
0 0 0 0 0 0 0 0 0 0 0 0 0 0 3 6 10 10 23 42 55 55 77 77 74 77 77 81 74 74 74 71 68 65 77 77 74 74 68 68 68 58 61 52
0 0 0 0 0 0 0 0 0 0 0 0 0 0 0 13 13 23 23 35 45 58 61 71 65 61 71 71 84 74 74 68 71 68 71 65 68 71 71 71 68 65 58 58
0 0 0 0 0 0 0 0 0 0 0 0 0 0 0 6 16 23 29 39 42 55 55 71 61 58 61 65 58 58 61 65 65 65 68 61 55 58 61 65 65 65 61 61
0 0 0 0 0 0 0 0 0 0 0 0 0 0 3 13 19 35 32 39 42 55 55 61 65 61 58 61 55 55 58 52 52 58 58 58 58 58 61 61 52 55 55 55
0 0 0 0 0 0 0 0 0 0 0 0 0 0 10 16 19 29 35 39 61 65 68 65 61 58 58 58 48 52 48 55 52 55 61 65 65 58 48 48 48 52 52 52
0 0 0 0 0 0 0 0 0 0 0 0 0 0 10 16 26 32 45 52 45 65 77 71 61 58 61 61 61 61 58 55 61 65 65 65 71 58 55 55 45 48 48 52
0 0 0 0 0 0 0 0 0 0 0 0 0 3 6 26 29 39 48 55 58 65 71 74 65 61 65 61 61 58 55 52 52 58 55 55 58 61 61 55 48 48 52 52
0 0 0 0 0 0 0 0 0 0 0 0 0 6 13 26 32 48 61 61 61 65 71 68 68 68 65 61 55 58 55 55 55 55 58 55 61 61 61 58 58 45 52 52
0 0 0 0 0 0 0 0 0 0 0 0 0 10 23 32 39 45 52 58 68 71 58 61 61 68 61 55 52 52 55 61 65 65 65 65 58 58 65 55 52 58 58 55
0 0 0 0 0 0 0 3 0 0 3 3 10 16 35 42 39 48 58 58 55 55 55 52 55 58 61 58 48 52 48 58 58 55 52 58 55 45 55 55 55 52 58 55
3 0 0 0 0 0 0 0 3 6 6 13 16 29 39 42 35 29 35 55 48 52 55 58 48 48 55 55 52 45 48 55 58 52 45 52 55 48 52 52 61 65 58 55
3 6 0 0 0 0 3 6 3 10 13 13 29 32 35 39 23 29 29 35 42 45 48 52 48 45 52 48 52 52 52 55 58 55 52 48 58 58 58 58 65 68 68 61
0 0 0 0 0 3 13 13 6 3 13 32 35 35 45 42 45 35 42 39 39 35 35 39 39 45 52 52 58 58 52 52 52 52 52 55 55 61 61 55 58 65 68 58
0 0 0 0 0 10 19 13 23 48 55 45 48 42 39 29 26 32 42 45 39 32 35 35 39 42 42 48 58 55 58 45 48 45 45 48 58 48 42 58 65 68 68 68
3 0 10 6 16 19 19 29 35 42 52 48 45 39 32 32 32 39 32 35 35 32 35 32 32 32 35 42 48 55 61 52 45 45 45 48 58 55 58 65 65 68 68 58
6 3 16 16 16 13 16 26 39 42 45 39 45 39 39 35 29 29 29 26 32 35 35 35 23 23 29 29 39 42 45 48 45 45 39 42 45 42 48 52 52 48 45 35
3 6 13 6 13 16 16 26 29 29 26 32 29 32 32 26 19 19 19 19 26 23 26 26 19 19 19 19 19 19 32 39 42 48 52 42 42 42 42 35 26 35 35 35
0 6 10 10 13 13 19 26 16 23 19 16 23 19 16 16 13 16 19 19 16 16 19 23 16 19 19 19 19 19 29 35 42 39 35 35 39 35 26 13 13 0 0 0